Location: Les Thiberg�res
(47.8554°N, 1.0978°W)
Time: 18:35:15
(UTC+00:00)

Sich 1 - Pass Details

Date: 17 February 2020
Orbit: 595 x 625 km, 82.5° (Epoch: 28 March)

Event Time Altitude Azimuth Distance (km) Brightness Sun altitude
Rises 06:32:09 0° 343° (NNW) 2,850 6.2 -6.7°
Reaches altitude 10° 06:34:28 10° 336° (NNW) 1,944 5.3 -6.3°
Maximum altitude 06:38:26 38° 268° (W) 922 3.5 -5.7°
Drops below altitude 10° 06:42:24 10° 200° (SSW) 1,939 5.5 -5.0°
Sets 06:44:42 0° 193° (SSW) 2,841 6.5 -4.6°
